Worcester, MA

3:59 AM EDT on April 29, 2017 (GMT -0400)
Worcester Regional

Weather History for KORH - March, 2015

Change the Weather History Date:

Monday, March 2, 2015

  Actual Average Record
Temperature  
Mean Temperature 25 °F 30 °F  
Max Temperature 30 °F 38 °F 60 °F (1991)
Min Temperature 19 °F 23 °F 0 °F (1962)
Degree Days  
Heating Degree Days 40 35  
Month to date heating degree days 86 70  
Since 1 July heating degree days 5200 4907  
Cooling Degree Days 0 0  
Month to date cooling degree days 0 0  
Year to date cooling degree days 0 0  
Moisture  
Dew Point 15 °F    
Average Humidity 67    
Maximum Humidity 88    
Minimum Humidity 46    
Precipitation  
Precipitation T in 0.13 in 2.05 in (2007)
Month to date precipitation 0.30 0.26  
Year to date precipitation 8.61 6.98  
Sea Level Pressure  
Sea Level Pressure 30.03 in    
Wind  
Wind Speed 18 mph (WNW)    
Max Wind Speed 32 mph    
Max Gust Speed 45 mph    
Visibility 9 miles    
Events Snow    
T = Trace of Precipitation, MM = Missing Value Source: NWS Daily Summary

Daily Weather History Graph

Daily Weather History Graph

Search for Another Location

Airport or City:

Trip Planner

Search our weather history database for the weather conditions in past years. The results will help you decide how hot, cold, wet, or windy it might be!

Date:

Astronomy

Mar. 02, 2015 Rise Set
Actual Time 6:21 AM EST 5:38 PM EST
Civil Twilight 5:53 AM EST 6:06 PM EST
Nautical Twilight 5:21 AM EST 6:38 PM EST
Astronomical Twilight 4:48 AM EST 7:11 PM EST
Moon 3:02 PM EST (3/2) 4:25 AM EST (3/2)
Length of Visible Light 12h 12m
Length of Day
11h 16m
Waxing Gibbous, 92% of the Moon is Illuminated
Mar 2
Waxing Gibbous
Mar 5
Full
Mar 13
Last Quarter
Mar 20
New
Mar 27
First Quarter

Hourly Weather History & Observations

Time (EST) Temp. Windchill Dew Point Humidity Pressure Visibility Wind Dir Wind Speed Gust Speed Precip Events Conditions
12:03 AM 24.1 °F 13.7 °F 21.0 °F 88% 30.03 in 2.5 mi West 10.4 mph - 0.00 in Snow Light Snow
12:38 AM 24.1 °F 11.5 °F 21.0 °F 88% 30.01 in 4.0 mi WSW 15.0 mph - 0.00 in Snow Light Snow
12:54 AM 24.1 °F 12.5 °F 21.0 °F 88% 30.06 in 5.0 mi West 12.7 mph - 0.00 in Snow Light Snow
1:54 AM 23.0 °F 12.4 °F 19.9 °F 88% 30.02 in 10.0 mi West 10.4 mph - 0.00 in   Overcast
2:54 AM 23.0 °F 13.9 °F 19.9 °F 88% 29.99 in 10.0 mi West 8.1 mph - N/A   Overcast
3:54 AM 24.8 °F 15.3 °F 19.4 °F 80% 29.92 in 8.0 mi West 9.2 mph - N/A   Overcast
4:54 AM 25.0 °F 12.6 °F 19.9 °F 81% 29.95 in 10.0 mi West 15.0 mph - N/A   Overcast
5:54 AM 24.1 °F 11.0 °F 19.9 °F 84% 29.94 in 10.0 mi West 16.1 mph - N/A   Mostly Cloudy
6:54 AM 24.1 °F 10.6 °F 19.9 °F 84% 29.93 in 10.0 mi West 17.3 mph - N/A   Scattered Clouds
7:54 AM 24.1 °F 10.1 °F 19.9 °F 84% 29.93 in 10.0 mi West 18.4 mph - N/A   Clear
8:54 AM 26.1 °F 12.3 °F 19.9 °F 78% 29.96 in 10.0 mi West 19.6 mph 26.5 mph N/A   Scattered Clouds
9:29 AM 28.0 °F 15.7 °F 19.0 °F 69% 29.92 in 10.0 mi West 17.3 mph 28.8 mph N/A   Mostly Cloudy
9:47 AM 28.0 °F 14.6 °F 16.0 °F 61% 29.92 in 7.0 mi West 20.7 mph 38.0 mph N/A   Scattered Clouds
9:54 AM 28.0 °F 13.9 °F 17.1 °F 63% 29.97 in 10.0 mi WNW 23.0 mph 32.2 mph N/A   Scattered Clouds
10:54 AM 28.9 °F 15.8 °F 15.1 °F 56% 29.97 in 10.0 mi WNW 20.7 mph 34.5 mph N/A   Mostly Cloudy
11:54 AM 28.9 °F 15.8 °F 12.9 °F 51% 29.99 in 10.0 mi WNW 20.7 mph 33.4 mph 0.00 in   Mostly Cloudy
12:54 PM 28.9 °F 14.5 °F 12.0 °F 49% 29.99 in 9.0 mi WNW 25.3 mph 38.0 mph N/A   Mostly Cloudy
1:54 PM 28.9 °F 15.4 °F 12.0 °F 49% 29.99 in 10.0 mi West 21.9 mph 27.6 mph N/A   Mostly Cloudy
2:54 PM 28.9 °F 14.8 °F 10.0 °F 45% 30.01 in 8.0 mi WNW 24.2 mph 36.8 mph 0.00 in   Scattered Clouds
3:54 PM 28.0 °F 14.3 °F 10.0 °F 47% 30.03 in 10.0 mi WNW 21.9 mph 32.2 mph 0.00 in   Mostly Cloudy
4:54 PM 26.6 °F 12.0 °F 10.4 °F 51% 29.99 in 9.0 mi WNW 23.0 mph 35.7 mph N/A   Clear
5:54 PM 25.0 °F 8.1 °F 9.0 °F 51% 30.08 in 4.0 mi WNW 29.9 mph 43.7 mph 0.00 in Snow Blowing Snow
6:54 PM 24.1 °F 8.7 °F 9.0 °F 53% 30.13 in 10.0 mi WNW 23.0 mph 32.2 mph 0.00 in   Clear
7:54 PM 24.1 °F 9.8 °F 10.0 °F 55% 30.15 in 10.0 mi West 19.6 mph 29.9 mph N/A   Clear
8:54 PM 23.0 °F 12.4 °F 9.0 °F 55% 30.17 in 10.0 mi NW 10.4 mph 21.9 mph N/A   Clear
9:54 PM 21.9 °F 7.3 °F 7.0 °F 53% 30.18 in 10.0 mi WNW 18.4 mph - N/A   Clear
10:54 PM 19.9 °F 7.3 °F 7.0 °F 57% 30.22 in 10.0 mi WNW 12.7 mph - N/A   Partly Cloudy
11:54 PM 19.0 °F 11.1 °F 6.1 °F 57% 30.25 in 10.0 mi WNW 5.8 mph - N/A   Partly Cloudy